Location: Mesa Verde
(33.6055°N, 114.7275°W)
Time: 21:19:37
(UTC+00:00)

N. Korean satellite - Pass Details

Date: 04 October 2021
Orbit: 450 x 495 km, 97.3° (Epoch: 23 October)

Event Time Altitude Azimuth Distance (km) Brightness Sun altitude
Rises 11:54:35 0° 34° (NE) 2,564 10.9 -21.8°
Reaches altitude 10° 11:57:28 10° 60° (ENE) 1,684 10.3 -21.2°
Maximum altitude 11:59:28 14° 94° (E) 1,439 9.9 -20.8°
Drops below altitude 10° 12:01:29 10° 128° (SE) 1,685 9.9 -20.4°
Sets 12:04:21 0° 154° (SSE) 2,564 10.5 -19.8°
